Time,TemperatureF,DewpointF,PressureIn,WindDirection,WindDirectionDegrees,WindSpeedMPH,WindSpeedGustMPH,Humidity,HourlyPrecipIn,Conditions,Clouds,dailyrainin,SoftwareType,DateUTC
2013-01-10 00:00:00,52.3,50.3,30.45,South,180,0.0,-999.0,93,0.00,,,0.00,Wunderground v.1.15,2013-01-10 05:00:00,
2013-01-10 00:05:00,52.3,50.3,30.45,South,180,0.0,-999.0,93,0.00,,,0.00,Wunderground v.1.15,2013-01-10 05:05:00,
2013-01-10 00:10:00,52.3,50.3,30.45,South,180,0.0,-999.0,93,0.00,,,0.00,Wunderground v.1.15,2013-01-10 05:10:00,
2013-01-10 00:15:00,52.3,50.3,30.45,South,180,0.0,-999.0,93,0.00,,,0.00,Wunderground v.1.15,2013-01-10 05:15:00,
2013-01-10 00:20:00,52.3,50.3,30.45,South,180,0.0,-999.0,93,0.00,,,0.00,Wunderground v.1.15,2013-01-10 05:20:00,
2013-01-10 00:25:00,52.3,50.3,30.45,South,180,0.0,-999.0,93,0.00,,,0.00,Wunderground v.1.15,2013-01-10 05:25:00,
2013-01-10 00:30:00,52.3,50.3,30.45,South,180,0.0,-999.0,93,0.00,,,0.00,Wunderground v.1.15,2013-01-10 05:30:00,
2013-01-10 00:35:00,52.3,50.3,30.45,South,180,0.0,-999.0,93,0.00,,,0.00,Wunderground v.1.15,2013-01-10 05:35:00,
2013-01-10 00:40:00,52.3,50.3,30.45,South,180,0.0,-999.0,93,0.00,,,0.00,Wunderground v.1.15,2013-01-10 05:40:00,
2013-01-10 00:45:00,51.7,49.7,30.44,South,180,0.0,-999.0,93,0.00,,,0.00,Wunderground v.1.15,2013-01-10 05:45:00,
2013-01-10 00:50:00,51.7,49.7,30.44,South,180,0.0,-999.0,93,0.00,,,0.00,Wunderground v.1.15,2013-01-10 05:50:00,
2013-01-10 00:55:00,51.7,49.7,30.44,South,180,0.0,-999.0,93,0.00,,,0.00,Wunderground v.1.15,2013-01-10 05:55:00,
2013-01-10 01:00:00,51.7,49.7,30.44,South,180,0.0,-999.0,93,0.00,,,0.00,Wunderground v.1.15,2013-01-10 06:00:00,
2013-01-10 01:05:00,51.7,49.7,30.44,South,180,0.0,-999.0,93,0.00,,,0.00,Wunderground v.1.15,2013-01-10 06:05:00,
2013-01-10 01:10:00,51.7,49.7,30.44,South,180,0.0,-999.0,93,0.00,,,0.00,Wunderground v.1.15,2013-01-10 06:10:00,
2013-01-10 01:15:00,51.3,49.3,30.44,South,180,0.0,-999.0,93,0.00,,,0.00,Wunderground v.1.15,2013-01-10 06:15:00,
2013-01-10 01:20:00,51.3,49.3,30.44,South,180,0.0,-999.0,93,0.00,,,0.00,Wunderground v.1.15,2013-01-10 06:20:00,
2013-01-10 01:25:00,51.3,49.3,30.44,South,180,0.0,-999.0,93,0.00,,,0.00,Wunderground v.1.15,2013-01-10 06:25:00,
2013-01-10 01:30:00,51.3,49.3,30.44,South,180,0.0,-999.0,93,0.00,,,0.00,Wunderground v.1.15,2013-01-10 06:30:00,
2013-01-10 01:35:00,51.3,49.3,30.44,South,180,0.0,-999.0,93,0.00,,,0.00,Wunderground v.1.15,2013-01-10 06:35:00,
2013-01-10 01:40:00,51.3,49.3,30.44,South,180,0.0,-999.0,93,0.00,,,0.00,Wunderground v.1.15,2013-01-10 06:40:00,
2013-01-10 01:45:00,51.3,49.3,30.44,N/A,-737280,0.0,-999.0,93,0.00,,,0.00,Wunderground v.1.15,2013-01-10 06:45:00,
2013-01-10 01:50:00,51.3,49.3,30.44,N/A,-737280,0.0,-999.0,93,0.00,,,0.00,Wunderground v.1.15,2013-01-10 06:50:00,
2013-01-10 01:55:00,51.3,49.3,30.44,N/A,-737280,0.0,-999.0,93,0.00,,,0.00,Wunderground v.1.15,2013-01-10 06:55:00,
2013-01-10 02:00:00,51.3,49.3,30.44,N/A,-737280,0.0,-999.0,93,0.00,,,0.00,Wunderground v.1.15,2013-01-10 07:00:00,
2013-01-10 02:05:00,51.3,49.3,30.44,N/A,-737280,0.0,-999.0,93,0.00,,,0.00,Wunderground v.1.15,2013-01-10 07:05:00,
2013-01-10 02:10:00,51.3,49.3,30.44,N/A,-737280,0.0,-999.0,93,0.00,,,0.00,Wunderground v.1.15,2013-01-10 07:10:00,
2013-01-10 02:15:00,50.9,48.9,30.45,N/A,-737280,0.0,-999.0,93,0.00,,,0.00,Wunderground v.1.15,2013-01-10 07:15:00,
2013-01-10 02:20:00,50.9,48.9,30.45,N/A,-737280,0.0,-999.0,93,0.00,,,0.00,Wunderground v.1.15,2013-01-10 07:20:00,
2013-01-10 02:25:00,50.9,48.9,30.45,N/A,-737280,0.0,-999.0,93,0.00,,,0.00,Wunderground v.1.15,2013-01-10 07:25:00,
2013-01-10 02:30:00,50.9,48.9,30.45,N/A,-737280,0.0,-999.0,93,0.00,,,0.00,Wunderground v.1.15,2013-01-10 07:30:00,
2013-01-10 02:35:00,50.9,48.9,30.45,N/A,-737280,0.0,-999.0,93,0.00,,,0.00,Wunderground v.1.15,2013-01-10 07:35:00,
2013-01-10 02:40:00,50.9,48.9,30.45,N/A,-737280,0.0,-999.0,93,0.00,,,0.00,Wunderground v.1.15,2013-01-10 07:40:00,
2013-01-10 02:45:00,50.8,49.1,30.44,N/A,-737280,0.0,-999.0,94,0.00,,,0.00,Wunderground v.1.15,2013-01-10 07:45:00,
2013-01-10 02:50:00,50.8,49.1,30.44,N/A,-737280,0.0,-999.0,94,0.00,,,0.00,Wunderground v.1.15,2013-01-10 07:50:00,
2013-01-10 02:55:00,50.8,49.1,30.44,N/A,-737280,0.0,-999.0,94,0.00,,,0.00,Wunderground v.1.15,2013-01-10 07:55:00,
2013-01-10 03:00:00,50.8,49.1,30.44,N/A,-737280,0.0,-999.0,94,0.00,,,0.00,Wunderground v.1.15,2013-01-10 08:00:00,
2013-01-10 03:05:00,50.8,49.1,30.44,N/A,-737280,0.0,-999.0,94,0.00,,,0.00,Wunderground v.1.15,2013-01-10 08:05:00,
2013-01-10 03:10:00,50.8,49.1,30.44,N/A,-737280,0.0,-999.0,94,0.00,,,0.00,Wunderground v.1.15,2013-01-10 08:10:00,
2013-01-10 03:15:00,50.3,48.6,30.44,N/A,-737280,0.0,-999.0,94,0.00,,,0.00,Wunderground v.1.15,2013-01-10 08:15:00,
2013-01-10 03:20:00,50.3,48.6,30.44,N/A,-737280,0.0,-999.0,94,0.00,,,0.00,Wunderground v.1.15,2013-01-10 08:20:00,
2013-01-10 03:25:00,50.3,48.6,30.44,N/A,-737280,0.0,-999.0,94,0.00,,,0.00,Wunderground v.1.15,2013-01-10 08:25:00,
2013-01-10 03:30:00,50.3,48.6,30.44,N/A,-737280,0.0,-999.0,94,0.00,,,0.00,Wunderground v.1.15,2013-01-10 08:30:00,
2013-01-10 03:35:00,50.3,48.6,30.44,N/A,-737280,0.0,-999.0,94,0.00,,,0.00,Wunderground v.1.15,2013-01-10 08:35:00,
2013-01-10 03:40:00,50.3,48.6,30.44,N/A,-737280,0.0,-999.0,94,0.00,,,0.00,Wunderground v.1.15,2013-01-10 08:40:00,
2013-01-10 03:45:00,50.4,48.7,30.43,N/A,-737280,0.0,-999.0,94,0.00,,,0.00,Wunderground v.1.15,2013-01-10 08:45:00,
2013-01-10 03:50:00,50.4,48.7,30.43,N/A,-737280,0.0,-999.0,94,0.00,,,0.00,Wunderground v.1.15,2013-01-10 08:50:00,
2013-01-10 03:55:00,50.4,48.7,30.43,N/A,-737280,0.0,-999.0,94,0.00,,,0.00,Wunderground v.1.15,2013-01-10 08:55:00,
2013-01-10 04:00:00,50.4,48.7,30.43,N/A,-737280,0.0,-999.0,94,0.00,,,0.00,Wunderground v.1.15,2013-01-10 09:00:00,
2013-01-10 04:05:00,50.4,48.7,30.43,N/A,-737280,0.0,-999.0,94,0.00,,,0.00,Wunderground v.1.15,2013-01-10 09:05:00,
2013-01-10 04:10:00,50.4,48.7,30.43,N/A,-737280,0.0,-999.0,94,0.00,,,0.00,Wunderground v.1.15,2013-01-10 09:10:00,
2013-01-10 04:15:00,50.2,48.5,30.43,South,180,0.0,-999.0,94,0.00,,,0.00,Wunderground v.1.15,2013-01-10 09:15:00,
2013-01-10 04:20:00,50.2,48.5,30.43,South,180,0.0,-999.0,94,0.00,,,0.00,Wunderground v.1.15,2013-01-10 09:20:00,
2013-01-10 04:25:00,50.2,48.5,30.43,South,180,0.0,-999.0,94,0.00,,,0.00,Wunderground v.1.15,2013-01-10 09:25:00,
2013-01-10 04:30:00,50.2,48.5,30.43,South,180,0.0,-999.0,94,0.00,,,0.00,Wunderground v.1.15,2013-01-10 09:30:00,
2013-01-10 04:35:00,50.2,48.5,30.43,South,180,0.0,-999.0,94,0.00,,,0.00,Wunderground v.1.15,2013-01-10 09:35:00,
2013-01-10 04:40:00,50.2,48.5,30.43,South,180,0.0,-999.0,94,0.00,,,0.00,Wunderground v.1.15,2013-01-10 09:40:00,
2013-01-10 04:45:00,50.0,48.3,30.43,N/A,-737280,0.0,-999.0,94,0.00,,,0.00,Wunderground v.1.15,2013-01-10 09:45:00,
2013-01-10 04:50:00,50.0,48.3,30.43,N/A,-737280,0.0,-999.0,94,0.00,,,0.00,Wunderground v.1.15,2013-01-10 09:50:00,
2013-01-10 04:55:00,50.0,48.3,30.43,N/A,-737280,0.0,-999.0,94,0.00,,,0.00,Wunderground v.1.15,2013-01-10 09:55:00,
2013-01-10 05:00:00,50.0,48.3,30.43,N/A,-737280,0.0,-999.0,94,0.00,,,0.00,Wunderground v.1.15,2013-01-10 10:00:00,
2013-01-10 05:05:00,50.0,48.3,30.43,N/A,-737280,0.0,-999.0,94,0.00,,,0.00,Wunderground v.1.15,2013-01-10 10:05:00,
2013-01-10 05:10:00,50.0,48.3,30.43,N/A,-737280,0.0,-999.0,94,0.00,,,0.00,Wunderground v.1.15,2013-01-10 10:10:00,
2013-01-10 05:15:00,50.2,48.8,30.44,N/A,-737280,0.0,-999.0,95,0.00,,,0.00,Wunderground v.1.15,2013-01-10 10:15:00,
2013-01-10 05:20:00,50.2,48.8,30.44,N/A,-737280,0.0,-999.0,95,0.00,,,0.00,Wunderground v.1.15,2013-01-10 10:20:00,
2013-01-10 05:25:00,50.2,48.8,30.44,N/A,-737280,0.0,-999.0,95,0.00,,,0.00,Wunderground v.1.15,2013-01-10 10:25:00,
2013-01-10 05:30:00,50.2,48.8,30.44,N/A,-737280,0.0,-999.0,95,0.00,,,0.00,Wunderground v.1.15,2013-01-10 10:30:00,
2013-01-10 05:35:00,50.2,48.8,30.44,N/A,-737280,0.0,-999.0,95,0.00,,,0.00,Wunderground v.1.15,2013-01-10 10:35:00,
2013-01-10 05:40:00,50.2,48.8,30.44,N/A,-737280,0.0,-999.0,95,0.00,,,0.00,Wunderground v.1.15,2013-01-10 10:40:00,
2013-01-10 05:45:00,50.1,48.7,30.45,N/A,-737280,0.0,-999.0,95,0.00,,,0.00,Wunderground v.1.15,2013-01-10 10:45:00,
2013-01-10 05:50:00,50.1,48.7,30.45,N/A,-737280,0.0,-999.0,95,0.00,,,0.00,Wunderground v.1.15,2013-01-10 10:50:00,
2013-01-10 05:55:00,50.1,48.7,30.45,N/A,-737280,0.0,-999.0,95,0.00,,,0.00,Wunderground v.1.15,2013-01-10 10:55:00,
2013-01-10 06:00:00,50.1,48.7,30.45,N/A,-737280,0.0,-999.0,95,0.00,,,0.00,Wunderground v.1.15,2013-01-10 11:00:00,
2013-01-10 06:05:00,50.1,48.7,30.45,N/A,-737280,0.0,-999.0,95,0.00,,,0.00,Wunderground v.1.15,2013-01-10 11:05:00,
2013-01-10 06:10:00,50.1,48.7,30.45,N/A,-737280,0.0,-999.0,95,0.00,,,0.00,Wunderground v.1.15,2013-01-10 11:10:00,
2013-01-10 06:15:00,49.9,48.5,30.46,N/A,-737280,0.0,-999.0,95,0.00,,,0.00,Wunderground v.1.15,2013-01-10 11:15:00,
2013-01-10 06:20:00,49.9,48.5,30.46,N/A,-737280,0.0,-999.0,95,0.00,,,0.00,Wunderground v.1.15,2013-01-10 11:20:00,
2013-01-10 06:25:00,49.9,48.5,30.46,N/A,-737280,0.0,-999.0,95,0.00,,,0.00,Wunderground v.1.15,2013-01-10 11:25:00,
2013-01-10 06:30:00,49.9,48.5,30.46,N/A,-737280,0.0,-999.0,95,0.00,,,0.00,Wunderground v.1.15,2013-01-10 11:30:00,
2013-01-10 06:35:00,49.9,48.5,30.46,N/A,-737280,0.0,-999.0,95,0.00,,,0.00,Wunderground v.1.15,2013-01-10 11:35:00,
2013-01-10 06:40:00,49.9,48.5,30.46,N/A,-737280,0.0,-999.0,95,0.00,,,0.00,Wunderground v.1.15,2013-01-10 11:40:00,
2013-01-10 06:45:00,49.7,48.0,30.46,N/A,-737280,0.0,-999.0,94,0.00,,,0.00,Wunderground v.1.15,2013-01-10 11:45:00,
2013-01-10 06:50:00,49.7,48.0,30.46,N/A,-737280,0.0,-999.0,94,0.00,,,0.00,Wunderground v.1.15,2013-01-10 11:50:00,
2013-01-10 06:55:00,49.7,48.0,30.46,N/A,-737280,0.0,-999.0,94,0.00,,,0.00,Wunderground v.1.15,2013-01-10 11:55:00,
2013-01-10 07:00:00,49.7,48.0,30.46,N/A,-737280,0.0,-999.0,94,0.00,,,0.00,Wunderground v.1.15,2013-01-10 12:00:00,
2013-01-10 07:05:00,49.7,48.0,30.46,N/A,-737280,0.0,-999.0,94,0.00,,,0.00,Wunderground v.1.15,2013-01-10 12:05:00,
2013-01-10 07:10:00,49.7,48.0,30.46,N/A,-737280,0.0,-999.0,94,0.00,,,0.00,Wunderground v.1.15,2013-01-10 12:10:00,
2013-01-10 07:15:00,49.6,48.2,30.48,N/A,-737280,0.0,-999.0,95,0.00,,,0.00,Wunderground v.1.15,2013-01-10 12:15:00,
2013-01-10 07:20:00,49.6,48.2,30.48,N/A,-737280,0.0,-999.0,95,0.00,,,0.00,Wunderground v.1.15,2013-01-10 12:20:00,
2013-01-10 07:25:00,49.6,48.2,30.48,N/A,-737280,0.0,-999.0,95,0.00,,,0.00,Wunderground v.1.15,2013-01-10 12:25:00,
2013-01-10 07:30:00,49.6,48.2,30.48,N/A,-737280,0.0,-999.0,95,0.00,,,0.00,Wunderground v.1.15,2013-01-10 12:30:00,
2013-01-10 07:35:00,49.6,48.2,30.48,N/A,-737280,0.0,-999.0,95,0.00,,,0.00,Wunderground v.1.15,2013-01-10 12:35:00,
2013-01-10 07:40:00,49.6,48.2,30.48,N/A,-737280,0.0,-999.0,95,0.00,,,0.00,Wunderground v.1.15,2013-01-10 12:40:00,
2013-01-10 07:45:00,49.5,48.1,30.49,N/A,-737280,0.0,-999.0,95,0.00,,,0.00,Wunderground v.1.15,2013-01-10 12:45:00,
2013-01-10 07:50:00,49.5,48.1,30.49,N/A,-737280,0.0,-999.0,95,0.00,,,0.00,Wunderground v.1.15,2013-01-10 12:50:00,
2013-01-10 07:55:00,49.5,48.1,30.49,N/A,-737280,0.0,-999.0,95,0.00,,,0.00,Wunderground v.1.15,2013-01-10 12:55:00,
2013-01-10 08:00:00,49.5,48.1,30.49,N/A,-737280,0.0,-999.0,95,0.00,,,0.00,Wunderground v.1.15,2013-01-10 13:00:00,
2013-01-10 08:05:00,49.5,48.1,30.49,N/A,-737280,0.0,-999.0,95,0.00,,,0.00,Wunderground v.1.15,2013-01-10 13:05:00,
2013-01-10 08:10:00,49.5,48.1,30.49,N/A,-737280,0.0,-999.0,95,0.00,,,0.00,Wunderground v.1.15,2013-01-10 13:10:00,
2013-01-10 08:15:00,50.1,48.7,30.49,N/A,-737280,0.0,-999.0,95,0.00,,,0.00,Wunderground v.1.15,2013-01-10 13:15:00,
2013-01-10 08:20:00,50.1,48.7,30.49,N/A,-737280,0.0,-999.0,95,0.00,,,0.00,Wunderground v.1.15,2013-01-10 13:20:00,
2013-01-10 08:25:00,50.1,48.7,30.49,N/A,-737280,0.0,-999.0,95,0.00,,,0.00,Wunderground v.1.15,2013-01-10 13:25:00,
2013-01-10 08:30:00,50.1,48.7,30.49,N/A,-737280,0.0,-999.0,95,0.00,,,0.00,Wunderground v.1.15,2013-01-10 13:30:00,
2013-01-10 08:35:00,50.1,48.7,30.49,N/A,-737280,0.0,-999.0,95,0.00,,,0.00,Wunderground v.1.15,2013-01-10 13:35:00,
2013-01-10 08:40:00,50.1,48.7,30.49,N/A,-737280,0.0,-999.0,95,0.00,,,0.00,Wunderground v.1.15,2013-01-10 13:40:00,
2013-01-10 08:45:00,52.4,51.3,30.50,South,180,0.0,-999.0,96,0.00,,,0.00,Wunderground v.1.15,2013-01-10 13:45:00,
2013-01-10 08:50:00,52.4,51.3,30.50,South,180,0.0,-999.0,96,0.00,,,0.00,Wunderground v.1.15,2013-01-10 13:50:00,
2013-01-10 08:55:00,52.4,51.3,30.50,South,180,0.0,-999.0,96,0.00,,,0.00,Wunderground v.1.15,2013-01-10 13:55:00,
2013-01-10 09:00:00,52.4,51.3,30.50,South,180,0.0,-999.0,96,0.00,,,0.00,Wunderground v.1.15,2013-01-10 14:00:00,
2013-01-10 09:05:00,52.4,51.3,30.50,South,180,0.0,-999.0,96,0.00,,,0.00,Wunderground v.1.15,2013-01-10 14:05:00,
2013-01-10 09:10:00,52.4,51.3,30.50,South,180,0.0,-999.0,96,0.00,,,0.00,Wunderground v.1.15,2013-01-10 14:10:00,
2013-01-10 09:15:00,55.2,52.6,30.50,ENE,68,0.0,-999.0,91,0.00,,,0.00,Wunderground v.1.15,2013-01-10 14:15:00,
2013-01-10 09:20:00,55.2,52.6,30.50,ENE,68,0.0,-999.0,91,0.00,,,0.00,Wunderground v.1.15,2013-01-10 14:20:00,
2013-01-10 09:25:00,55.2,52.6,30.50,ENE,68,0.0,-999.0,91,0.00,,,0.00,Wunderground v.1.15,2013-01-10 14:25:00,
2013-01-10 09:30:00,55.2,52.6,30.50,ENE,68,0.0,-999.0,91,0.00,,,0.00,Wunderground v.1.15,2013-01-10 14:30:00,
2013-01-10 09:35:00,55.2,52.6,30.50,ENE,68,0.0,-999.0,91,0.00,,,0.00,Wunderground v.1.15,2013-01-10 14:35:00,
2013-01-10 09:40:00,55.2,52.6,30.50,ENE,68,0.0,-999.0,91,0.00,,,0.00,Wunderground v.1.15,2013-01-10 14:40:00,
2013-01-10 09:45:00,59.1,52.2,30.50,ENE,68,1.0,-999.0,78,0.00,,,0.00,Wunderground v.1.15,2013-01-10 14:45:00,
2013-01-10 09:50:00,59.1,52.2,30.50,ENE,68,1.0,-999.0,78,0.00,,,0.00,Wunderground v.1.15,2013-01-10 14:50:00,
2013-01-10 09:55:00,59.1,52.2,30.50,ENE,68,1.0,-999.0,78,0.00,,,0.00,Wunderground v.1.15,2013-01-10 14:55:00,
2013-01-10 10:00:00,59.1,52.2,30.50,ENE,68,1.0,-999.0,78,0.00,,,0.00,Wunderground v.1.15,2013-01-10 15:00:00,
2013-01-10 10:05:00,59.1,52.2,30.50,ENE,68,1.0,-999.0,78,0.00,,,0.00,Wunderground v.1.15,2013-01-10 15:05:00,
2013-01-10 10:10:00,59.1,52.2,30.50,ENE,68,1.0,-999.0,78,0.00,,,0.00,Wunderground v.1.15,2013-01-10 15:10:00,
2013-01-10 10:15:00,60.5,49.9,30.50,ENE,68,1.0,-999.0,68,0.00,,,0.00,Wunderground v.1.15,2013-01-10 15:15:00,
2013-01-10 10:20:00,60.5,49.9,30.50,ENE,68,1.0,-999.0,68,0.00,,,0.00,Wunderground v.1.15,2013-01-10 15:20:00,
2013-01-10 10:25:00,60.5,49.9,30.50,ENE,68,1.0,-999.0,68,0.00,,,0.00,Wunderground v.1.15,2013-01-10 15:25:00,
2013-01-10 10:30:00,60.5,49.9,30.50,ENE,68,1.0,-999.0,68,0.00,,,0.00,Wunderground v.1.15,2013-01-10 15:30:00,
2013-01-10 10:35:00,60.5,49.9,30.50,ENE,68,1.0,-999.0,68,0.00,,,0.00,Wunderground v.1.15,2013-01-10 15:35:00,
2013-01-10 10:40:00,60.5,49.9,30.50,ENE,68,1.0,-999.0,68,0.00,,,0.00,Wunderground v.1.15,2013-01-10 15:40:00,
2013-01-10 10:45:00,60.7,49.7,30.49,ENE,68,1.0,-999.0,67,0.00,,,0.00,Wunderground v.1.15,2013-01-10 15:45:00,
2013-01-10 10:50:00,60.7,49.7,30.49,ENE,68,1.0,-999.0,67,0.00,,,0.00,Wunderground v.1.15,2013-01-10 15:50:00,
2013-01-10 10:55:00,60.7,49.7,30.49,ENE,68,1.0,-999.0,67,0.00,,,0.00,Wunderground v.1.15,2013-01-10 15:55:00,
2013-01-10 11:00:00,60.7,49.7,30.49,ENE,68,1.0,-999.0,67,0.00,,,0.00,Wunderground v.1.15,2013-01-10 16:00:00,
2013-01-10 11:05:00,60.7,49.7,30.49,ENE,68,1.0,-999.0,67,0.00,,,0.00,Wunderground v.1.15,2013-01-10 16:05:00,
2013-01-10 11:10:00,60.7,49.7,30.49,ENE,68,1.0,-999.0,67,0.00,,,0.00,Wunderground v.1.15,2013-01-10 16:10:00,
2013-01-10 11:15:00,61.4,49.9,30.48,NE,45,0.0,-999.0,66,0.00,,,0.00,Wunderground v.1.15,2013-01-10 16:15:00,
2013-01-10 11:20:00,61.4,49.9,30.48,NE,45,0.0,-999.0,66,0.00,,,0.00,Wunderground v.1.15,2013-01-10 16:20:00,
2013-01-10 11:25:00,61.4,49.9,30.48,NE,45,0.0,-999.0,66,0.00,,,0.00,Wunderground v.1.15,2013-01-10 16:25:00,
2013-01-10 11:30:00,61.4,49.9,30.48,NE,45,0.0,-999.0,66,0.00,,,0.00,Wunderground v.1.15,2013-01-10 16:30:00,
2013-01-10 11:35:00,61.4,49.9,30.48,NE,45,0.0,-999.0,66,0.00,,,0.00,Wunderground v.1.15,2013-01-10 16:35:00,
2013-01-10 11:40:00,61.4,49.9,30.48,NE,45,0.0,-999.0,66,0.00,,,0.00,Wunderground v.1.15,2013-01-10 16:40:00,
2013-01-10 11:45:00,62.2,50.3,30.47,NE,45,0.0,-999.0,65,0.00,,,0.00,Wunderground v.1.15,2013-01-10 16:45:00,
2013-01-10 11:50:00,62.2,50.3,30.47,NE,45,0.0,-999.0,65,0.00,,,0.00,Wunderground v.1.15,2013-01-10 16:50:00,
2013-01-10 11:55:00,62.2,50.3,30.47,NE,45,0.0,-999.0,65,0.00,,,0.00,Wunderground v.1.15,2013-01-10 16:55:00,
2013-01-10 12:00:00,62.2,50.3,30.47,NE,45,0.0,-999.0,65,0.00,,,0.00,Wunderground v.1.15,2013-01-10 17:00:00,
2013-01-10 12:05:00,62.2,50.3,30.47,NE,45,0.0,-999.0,65,0.00,,,0.00,Wunderground v.1.15,2013-01-10 17:05:00,
2013-01-10 12:10:00,62.2,50.3,30.47,NE,45,0.0,-999.0,65,0.00,,,0.00,Wunderground v.1.15,2013-01-10 17:10:00,
2013-01-10 12:15:00,63.4,49.7,30.45,ENE,68,1.0,-999.0,61,0.00,,,0.00,Wunderground v.1.15,2013-01-10 17:15:00,
2013-01-10 12:20:00,63.4,49.7,30.45,ENE,68,1.0,-999.0,61,0.00,,,0.00,Wunderground v.1.15,2013-01-10 17:20:00,
2013-01-10 12:25:00,63.4,49.7,30.45,ENE,68,1.0,-999.0,61,0.00,,,0.00,Wunderground v.1.15,2013-01-10 17:25:00,
2013-01-10 12:30:00,63.4,49.7,30.45,ENE,68,1.0,-999.0,61,0.00,,,0.00,Wunderground v.1.15,2013-01-10 17:30:00,
2013-01-10 12:35:00,63.4,49.7,30.45,ENE,68,1.0,-999.0,61,0.00,,,0.00,Wunderground v.1.15,2013-01-10 17:35:00,
2013-01-10 12:40:00,63.4,49.7,30.45,ENE,68,1.0,-999.0,61,0.00,,,0.00,Wunderground v.1.15,2013-01-10 17:40:00,
2013-01-10 12:45:00,64.1,49.5,30.44,NE,45,1.0,-999.0,59,0.00,,,0.00,Wunderground v.1.15,2013-01-10 17:45:00,
2013-01-10 12:50:00,64.1,49.5,30.44,NE,45,1.0,-999.0,59,0.00,,,0.00,Wunderground v.1.15,2013-01-10 17:50:00,
2013-01-10 12:55:00,64.1,49.5,30.44,NE,45,1.0,-999.0,59,0.00,,,0.00,Wunderground v.1.15,2013-01-10 17:55:00,
2013-01-10 13:00:00,64.1,49.5,30.44,NE,45,1.0,-999.0,59,0.00,,,0.00,Wunderground v.1.15,2013-01-10 18:00:00,
2013-01-10 13:05:00,64.1,49.5,30.44,NE,45,1.0,-999.0,59,0.00,,,0.00,Wunderground v.1.15,2013-01-10 18:05:00,
2013-01-10 13:10:00,64.1,49.5,30.44,NE,45,1.0,-999.0,59,0.00,,,0.00,Wunderground v.1.15,2013-01-10 18:10:00,
2013-01-10 13:15:00,64.8,48.7,30.43,NE,45,1.0,-999.0,56,0.00,,,0.00,Wunderground v.1.15,2013-01-10 18:15:00,
2013-01-10 13:20:00,64.8,48.7,30.43,NE,45,1.0,-999.0,56,0.00,,,0.00,Wunderground v.1.15,2013-01-10 18:20:00,
2013-01-10 13:25:00,64.8,48.7,30.43,NE,45,1.0,-999.0,56,0.00,,,0.00,Wunderground v.1.15,2013-01-10 18:25:00,
2013-01-10 13:30:00,64.8,48.7,30.43,NE,45,1.0,-999.0,56,0.00,,,0.00,Wunderground v.1.15,2013-01-10 18:30:00,
2013-01-10 13:35:00,64.8,48.7,30.43,NE,45,1.0,-999.0,56,0.00,,,0.00,Wunderground v.1.15,2013-01-10 18:35:00,
2013-01-10 13:40:00,64.8,48.7,30.43,NE,45,1.0,-999.0,56,0.00,,,0.00,Wunderground v.1.15,2013-01-10 18:40:00,
2013-01-10 13:45:00,66.3,48.7,30.42,ENE,68,1.0,-999.0,53,0.00,,,0.00,Wunderground v.1.15,2013-01-10 18:45:00,
2013-01-10 13:50:00,66.3,48.7,30.42,ENE,68,1.0,-999.0,53,0.00,,,0.00,Wunderground v.1.15,2013-01-10 18:50:00,
2013-01-10 13:55:00,66.3,48.7,30.42,ENE,68,1.0,-999.0,53,0.00,,,0.00,Wunderground v.1.15,2013-01-10 18:55:00,
2013-01-10 14:00:00,66.3,48.7,30.42,ENE,68,1.0,-999.0,53,0.00,,,0.00,Wunderground v.1.15,2013-01-10 19:00:00,
2013-01-10 14:05:00,66.3,48.7,30.42,ENE,68,1.0,-999.0,53,0.00,,,0.00,Wunderground v.1.15,2013-01-10 19:05:00,
2013-01-10 14:10:00,66.3,48.7,30.42,ENE,68,1.0,-999.0,53,0.00,,,0.00,Wunderground v.1.15,2013-01-10 19:10:00,
2013-01-10 14:15:00,66.4,48.7,30.42,NNE,23,1.0,-999.0,53,0.00,,,0.00,Wunderground v.1.15,2013-01-10 19:15:00,
2013-01-10 14:20:00,66.4,48.7,30.42,NNE,23,1.0,-999.0,53,0.00,,,0.00,Wunderground v.1.15,2013-01-10 19:20:00,
2013-01-10 14:25:00,66.4,48.7,30.42,NNE,23,1.0,-999.0,53,0.00,,,0.00,Wunderground v.1.15,2013-01-10 19:25:00,
2013-01-10 14:30:00,66.4,48.7,30.42,NNE,23,1.0,-999.0,53,0.00,,,0.00,Wunderground v.1.15,2013-01-10 19:30:00,
2013-01-10 14:35:00,66.4,48.7,30.42,NNE,23,1.0,-999.0,53,0.00,,,0.00,Wunderground v.1.15,2013-01-10 19:35:00,
2013-01-10 14:40:00,66.4,48.7,30.42,NNE,23,1.0,-999.0,53,0.00,,,0.00,Wunderground v.1.15,2013-01-10 19:40:00,
2013-01-10 14:45:00,66.7,48.5,30.41,NE,45,1.0,-999.0,52,0.00,,,0.00,Wunderground v.1.15,2013-01-10 19:45:00,
2013-01-10 14:50:00,66.7,48.5,30.41,NE,45,1.0,-999.0,52,0.00,,,0.00,Wunderground v.1.15,2013-01-10 19:50:00,
2013-01-10 14:55:00,66.7,48.5,30.41,NE,45,1.0,-999.0,52,0.00,,,0.00,Wunderground v.1.15,2013-01-10 19:55:00,
2013-01-10 15:00:00,66.7,48.5,30.41,NE,45,1.0,-999.0,52,0.00,,,0.00,Wunderground v.1.15,2013-01-10 20:00:00,
2013-01-10 15:05:00,66.7,48.5,30.41,NE,45,1.0,-999.0,52,0.00,,,0.00,Wunderground v.1.15,2013-01-10 20:05:00,
2013-01-10 15:10:00,66.7,48.5,30.41,NE,45,1.0,-999.0,52,0.00,,,0.00,Wunderground v.1.15,2013-01-10 20:10:00,
2013-01-10 15:15:00,66.2,48.0,30.41,NE,45,1.0,-999.0,52,0.00,,,0.00,Wunderground v.1.15,2013-01-10 20:15:00,
2013-01-10 15:20:00,66.2,48.0,30.41,NE,45,1.0,-999.0,52,0.00,,,0.00,Wunderground v.1.15,2013-01-10 20:20:00,
2013-01-10 15:25:00,66.2,48.0,30.41,NE,45,1.0,-999.0,52,0.00,,,0.00,Wunderground v.1.15,2013-01-10 20:25:00,
2013-01-10 15:30:00,66.2,48.0,30.41,NE,45,1.0,-999.0,52,0.00,,,0.00,Wunderground v.1.15,2013-01-10 20:30:00,
2013-01-10 15:35:00,66.2,48.0,30.41,NE,45,1.0,-999.0,52,0.00,,,0.00,Wunderground v.1.15,2013-01-10 20:35:00,
2013-01-10 15:40:00,66.2,48.0,30.41,NE,45,1.0,-999.0,52,0.00,,,0.00,Wunderground v.1.15,2013-01-10 20:40:00,
2013-01-10 15:45:00,65.8,46.6,30.41,NE,45,0.0,-999.0,50,0.00,,,0.00,Wunderground v.1.15,2013-01-10 20:45:00,
2013-01-10 15:50:00,65.8,46.6,30.41,NE,45,0.0,-999.0,50,0.00,,,0.00,Wunderground v.1.15,2013-01-10 20:50:00,
2013-01-10 15:55:00,65.8,46.6,30.41,NE,45,0.0,-999.0,50,0.00,,,0.00,Wunderground v.1.15,2013-01-10 20:55:00,
2013-01-10 16:00:00,65.8,46.6,30.41,NE,45,0.0,-999.0,50,0.00,,,0.00,Wunderground v.1.15,2013-01-10 21:00:00,
2013-01-10 16:05:00,65.8,46.6,30.41,NE,45,0.0,-999.0,50,0.00,,,0.00,Wunderground v.1.15,2013-01-10 21:05:00,
2013-01-10 16:10:00,65.8,46.6,30.41,NE,45,0.0,-999.0,50,0.00,,,0.00,Wunderground v.1.15,2013-01-10 21:10:00,
2013-01-10 16:15:00,64.9,46.8,30.41,ENE,68,0.0,-999.0,52,0.00,,,0.00,Wunderground v.1.15,2013-01-10 21:15:00,
2013-01-10 16:20:00,64.9,46.8,30.41,ENE,68,0.0,-999.0,52,0.00,,,0.00,Wunderground v.1.15,2013-01-10 21:20:00,
2013-01-10 16:25:00,64.9,46.8,30.41,ENE,68,0.0,-999.0,52,0.00,,,0.00,Wunderground v.1.15,2013-01-10 21:25:00,
2013-01-10 16:30:00,64.9,46.8,30.41,ENE,68,0.0,-999.0,52,0.00,,,0.00,Wunderground v.1.15,2013-01-10 21:30:00,
2013-01-10 16:35:00,64.9,46.8,30.41,ENE,68,0.0,-999.0,52,0.00,,,0.00,Wunderground v.1.15,2013-01-10 21:35:00,
2013-01-10 16:40:00,64.9,46.8,30.41,ENE,68,0.0,-999.0,52,0.00,,,0.00,Wunderground v.1.15,2013-01-10 21:40:00,
2013-01-10 16:45:00,64.7,46.7,30.42,ENE,68,0.0,-999.0,52,0.00,,,0.00,Wunderground v.1.15,2013-01-10 21:45:00,
2013-01-10 16:50:00,64.7,46.7,30.42,ENE,68,0.0,-999.0,52,0.00,,,0.00,Wunderground v.1.15,2013-01-10 21:50:00,
2013-01-10 16:55:00,64.7,46.7,30.42,ENE,68,0.0,-999.0,52,0.00,,,0.00,Wunderground v.1.15,2013-01-10 21:55:00,
2013-01-10 17:00:00,64.7,46.7,30.42,ENE,68,0.0,-999.0,52,0.00,,,0.00,Wunderground v.1.15,2013-01-10 22:00:00,
2013-01-10 17:05:00,64.7,46.7,30.42,ENE,68,0.0,-999.0,52,0.00,,,0.00,Wunderground v.1.15,2013-01-10 22:05:00,
2013-01-10 17:10:00,64.7,46.7,30.42,ENE,68,0.0,-999.0,52,0.00,,,0.00,Wunderground v.1.15,2013-01-10 22:10:00,
2013-01-10 17:15:00,62.4,44.5,30.42,ENE,68,0.0,-999.0,52,0.00,,,0.00,Wunderground v.1.15,2013-01-10 22:15:00,
2013-01-10 17:20:00,62.4,44.5,30.42,ENE,68,0.0,-999.0,52,0.00,,,0.00,Wunderground v.1.15,2013-01-10 22:20:00,
2013-01-10 17:25:00,62.4,44.5,30.42,ENE,68,0.0,-999.0,52,0.00,,,0.00,Wunderground v.1.15,2013-01-10 22:25:00,
2013-01-10 17:30:00,62.4,44.5,30.42,ENE,68,0.0,-999.0,52,0.00,,,0.00,Wunderground v.1.15,2013-01-10 22:30:00,
2013-01-10 17:35:00,62.4,44.5,30.42,ENE,68,0.0,-999.0,52,0.00,,,0.00,Wunderground v.1.15,2013-01-10 22:35:00,
2013-01-10 17:40:00,62.4,44.5,30.42,ENE,68,0.0,-999.0,52,0.00,,,0.00,Wunderground v.1.15,2013-01-10 22:40:00,
2013-01-10 17:45:00,60.0,43.8,30.43,NE,45,0.0,-999.0,55,0.00,,,0.00,Wunderground v.1.15,2013-01-10 22:45:00,
2013-01-10 17:50:00,60.0,43.8,30.43,NE,45,0.0,-999.0,55,0.00,,,0.00,Wunderground v.1.15,2013-01-10 22:50:00,
2013-01-10 17:55:00,60.0,43.8,30.43,NE,45,0.0,-999.0,55,0.00,,,0.00,Wunderground v.1.15,2013-01-10 22:55:00,
2013-01-10 18:00:00,60.0,43.8,30.43,NE,45,0.0,-999.0,55,0.00,,,0.00,Wunderground v.1.15,2013-01-10 23:00:00,
2013-01-10 18:05:00,60.0,43.8,30.43,NE,45,0.0,-999.0,55,0.00,,,0.00,Wunderground v.1.15,2013-01-10 23:05:00,
2013-01-10 18:10:00,60.0,43.8,30.43,NE,45,0.0,-999.0,55,0.00,,,0.00,Wunderground v.1.15,2013-01-10 23:10:00,
2013-01-10 18:15:00,58.3,42.2,30.43,NE,45,0.0,-999.0,55,0.00,,,0.00,Wunderground v.1.15,2013-01-10 23:15:00,
2013-01-10 18:20:00,58.3,42.2,30.43,NE,45,0.0,-999.0,55,0.00,,,0.00,Wunderground v.1.15,2013-01-10 23:20:00,
2013-01-10 18:25:00,58.3,42.2,30.43,NE,45,0.0,-999.0,55,0.00,,,0.00,Wunderground v.1.15,2013-01-10 23:25:00,
2013-01-10 18:30:00,58.3,42.2,30.43,NE,45,0.0,-999.0,55,0.00,,,0.00,Wunderground v.1.15,2013-01-10 23:30:00,
2013-01-10 18:35:00,58.3,42.2,30.43,NE,45,0.0,-999.0,55,0.00,,,0.00,Wunderground v.1.15,2013-01-10 23:35:00,
2013-01-10 18:40:00,58.3,42.2,30.43,NE,45,0.0,-999.0,55,0.00,,,0.00,Wunderground v.1.15,2013-01-10 23:40:00,
2013-01-10 18:45:00,57.2,41.6,30.43,NE,45,0.0,-999.0,56,0.00,,,0.00,Wunderground v.1.15,2013-01-10 23:45:00,
2013-01-10 18:50:00,57.2,41.6,30.43,NE,45,0.0,-999.0,56,0.00,,,0.00,Wunderground v.1.15,2013-01-10 23:50:00,
2013-01-10 18:55:00,57.2,41.6,30.43,NE,45,0.0,-999.0,56,0.00,,,0.00,Wunderground v.1.15,2013-01-10 23:55:00,
2013-01-10 19:00:00,57.2,41.6,30.43,NE,45,0.0,-999.0,56,0.00,,,0.00,Wunderground v.1.15,2013-01-11 00:00:00,
2013-01-10 19:05:00,57.2,41.6,30.43,NE,45,0.0,-999.0,56,0.00,,,0.00,Wunderground v.1.15,2013-01-11 00:05:00,
2013-01-10 19:10:00,57.2,41.6,30.43,NE,45,0.0,-999.0,56,0.00,,,0.00,Wunderground v.1.15,2013-01-11 00:10:00,
2013-01-10 19:15:00,56.2,41.2,30.42,NE,45,0.0,-999.0,57,0.00,,,0.00,Wunderground v.1.15,2013-01-11 00:15:00,
2013-01-10 19:20:00,56.2,41.2,30.42,NE,45,0.0,-999.0,57,0.00,,,0.00,Wunderground v.1.15,2013-01-11 00:20:00,
2013-01-10 19:25:00,56.2,41.2,30.42,NE,45,0.0,-999.0,57,0.00,,,0.00,Wunderground v.1.15,2013-01-11 00:25:00,
2013-01-10 19:30:00,56.2,41.2,30.42,NE,45,0.0,-999.0,57,0.00,,,0.00,Wunderground v.1.15,2013-01-11 00:30:00,
2013-01-10 19:35:00,56.2,41.2,30.42,NE,45,0.0,-999.0,57,0.00,,,0.00,Wunderground v.1.15,2013-01-11 00:35:00,
2013-01-10 19:40:00,56.2,41.2,30.42,NE,45,0.0,-999.0,57,0.00,,,0.00,Wunderground v.1.15,2013-01-11 00:40:00,
2013-01-10 19:45:00,54.9,40.4,30.42,NE,45,0.0,-999.0,58,0.00,,,0.00,Wunderground v.1.15,2013-01-11 00:45:00,
2013-01-10 19:50:00,54.9,40.4,30.42,NE,45,0.0,-999.0,58,0.00,,,0.00,Wunderground v.1.15,2013-01-11 00:50:00,
2013-01-10 19:55:00,54.9,40.4,30.42,NE,45,0.0,-999.0,58,0.00,,,0.00,Wunderground v.1.15,2013-01-11 00:55:00,
2013-01-10 20:00:00,54.9,40.4,30.42,NE,45,0.0,-999.0,58,0.00,,,0.00,Wunderground v.1.15,2013-01-11 01:00:00,
2013-01-10 20:05:00,54.9,40.4,30.42,NE,45,0.0,-999.0,58,0.00,,,0.00,Wunderground v.1.15,2013-01-11 01:05:00,
2013-01-10 20:10:00,54.9,40.4,30.42,NE,45,0.0,-999.0,58,0.00,,,0.00,Wunderground v.1.15,2013-01-11 01:10:00,
2013-01-10 20:15:00,54.3,40.3,30.42,NE,45,0.0,-999.0,59,0.00,,,0.00,Wunderground v.1.15,2013-01-11 01:15:00,
2013-01-10 20:20:00,54.3,40.3,30.42,NE,45,0.0,-999.0,59,0.00,,,0.00,Wunderground v.1.15,2013-01-11 01:20:00,
2013-01-10 20:25:00,54.3,40.3,30.42,NE,45,0.0,-999.0,59,0.00,,,0.00,Wunderground v.1.15,2013-01-11 01:25:00,
2013-01-10 20:30:00,54.3,40.3,30.42,NE,45,0.0,-999.0,59,0.00,,,0.00,Wunderground v.1.15,2013-01-11 01:30:00,
2013-01-10 20:35:00,54.3,40.3,30.42,NE,45,0.0,-999.0,59,0.00,,,0.00,Wunderground v.1.15,2013-01-11 01:35:00,
2013-01-10 20:40:00,54.3,40.3,30.42,NE,45,0.0,-999.0,59,0.00,,,0.00,Wunderground v.1.15,2013-01-11 01:40:00,
2013-01-10 20:45:00,54.2,40.6,30.42,NE,45,0.0,-999.0,60,0.00,,,0.00,Wunderground v.1.15,2013-01-11 01:45:00,
2013-01-10 20:50:00,54.2,40.6,30.42,NE,45,0.0,-999.0,60,0.00,,,0.00,Wunderground v.1.15,2013-01-11 01:50:00,
2013-01-10 20:55:00,54.2,40.6,30.42,NE,45,0.0,-999.0,60,0.00,,,0.00,Wunderground v.1.15,2013-01-11 01:55:00,
2013-01-10 21:00:00,54.2,40.6,30.42,NE,45,0.0,-999.0,60,0.00,,,0.00,Wunderground v.1.15,2013-01-11 02:00:00,
2013-01-10 21:05:00,54.2,40.6,30.42,NE,45,0.0,-999.0,60,0.00,,,0.00,Wunderground v.1.15,2013-01-11 02:05:00,
2013-01-10 21:10:00,54.2,40.6,30.42,NE,45,0.0,-999.0,60,0.00,,,0.00,Wunderground v.1.15,2013-01-11 02:10:00,
2013-01-10 21:15:00,54.4,40.8,30.41,NE,45,0.0,-999.0,60,0.00,,,0.00,Wunderground v.1.15,2013-01-11 02:15:00,
2013-01-10 21:20:00,54.4,40.8,30.41,NE,45,0.0,-999.0,60,0.00,,,0.00,Wunderground v.1.15,2013-01-11 02:20:00,
2013-01-10 21:25:00,54.4,40.8,30.41,NE,45,0.0,-999.0,60,0.00,,,0.00,Wunderground v.1.15,2013-01-11 02:25:00,
2013-01-10 21:30:00,54.4,40.8,30.41,NE,45,0.0,-999.0,60,0.00,,,0.00,Wunderground v.1.15,2013-01-11 02:30:00,
2013-01-10 21:35:00,54.4,40.8,30.41,NE,45,0.0,-999.0,60,0.00,,,0.00,Wunderground v.1.15,2013-01-11 02:35:00,
2013-01-10 21:40:00,54.4,40.8,30.41,NE,45,0.0,-999.0,60,0.00,,,0.00,Wunderground v.1.15,2013-01-11 02:40:00,
2013-01-10 21:45:00,54.9,41.3,30.40,NE,45,0.0,-999.0,60,0.00,,,0.00,Wunderground v.1.15,2013-01-11 02:45:00,
2013-01-10 21:50:00,54.9,41.3,30.40,NE,45,0.0,-999.0,60,0.00,,,0.00,Wunderground v.1.15,2013-01-11 02:50:00,
2013-01-10 21:55:00,54.9,41.3,30.40,NE,45,0.0,-999.0,60,0.00,,,0.00,Wunderground v.1.15,2013-01-11 02:55:00,
2013-01-10 22:00:00,54.9,41.3,30.40,NE,45,0.0,-999.0,60,0.00,,,0.00,Wunderground v.1.15,2013-01-11 03:00:00,
2013-01-10 22:05:00,54.9,41.3,30.40,NE,45,0.0,-999.0,60,0.00,,,0.00,Wunderground v.1.15,2013-01-11 03:05:00,
2013-01-10 22:10:00,54.9,41.3,30.40,NE,45,0.0,-999.0,60,0.00,,,0.00,Wunderground v.1.15,2013-01-11 03:10:00,
2013-01-10 22:15:00,55.0,42.2,30.40,NE,45,0.0,-999.0,62,0.00,,,0.00,Wunderground v.1.15,2013-01-11 03:15:00,
2013-01-10 22:20:00,55.0,42.2,30.40,NE,45,0.0,-999.0,62,0.00,,,0.00,Wunderground v.1.15,2013-01-11 03:20:00,
2013-01-10 22:25:00,55.0,42.2,30.40,NE,45,0.0,-999.0,62,0.00,,,0.00,Wunderground v.1.15,2013-01-11 03:25:00,
2013-01-10 22:30:00,55.0,42.2,30.40,NE,45,0.0,-999.0,62,0.00,,,0.00,Wunderground v.1.15,2013-01-11 03:30:00,
2013-01-10 22:35:00,55.0,42.2,30.40,NE,45,0.0,-999.0,62,0.00,,,0.00,Wunderground v.1.15,2013-01-11 03:35:00,
2013-01-10 22:40:00,55.0,42.2,30.40,NE,45,0.0,-999.0,62,0.00,,,0.00,Wunderground v.1.15,2013-01-11 03:40:00,
2013-01-10 22:45:00,54.6,41.8,30.40,N/A,-737280,0.0,-999.0,62,0.00,,,0.00,Wunderground v.1.15,2013-01-11 03:45:00,
2013-01-10 22:50:00,54.6,41.8,30.40,N/A,-737280,0.0,-999.0,62,0.00,,,0.00,Wunderground v.1.15,2013-01-11 03:50:00,
2013-01-10 22:55:00,54.6,41.8,30.40,N/A,-737280,0.0,-999.0,62,0.00,,,0.00,Wunderground v.1.15,2013-01-11 03:55:00,
2013-01-10 23:00:00,54.6,41.8,30.40,N/A,-737280,0.0,-999.0,62,0.00,,,0.00,Wunderground v.1.15,2013-01-11 04:00:00,
2013-01-10 23:05:00,54.6,41.8,30.40,N/A,-737280,0.0,-999.0,62,0.00,,,0.00,Wunderground v.1.15,2013-01-11 04:05:00,
2013-01-10 23:10:00,54.6,41.8,30.40,N/A,-737280,0.0,-999.0,62,0.00,,,0.00,Wunderground v.1.15,2013-01-11 04:10:00,
2013-01-10 23:15:00,54.1,41.4,30.38,North,0,0.0,-999.0,62,0.00,,,0.00,Wunderground v.1.15,2013-01-11 04:15:00,
2013-01-10 23:20:00,54.1,41.4,30.38,North,0,0.0,-999.0,62,0.00,,,0.00,Wunderground v.1.15,2013-01-11 04:20:00,
2013-01-10 23:25:00,54.1,41.4,30.38,North,0,0.0,-999.0,62,0.00,,,0.00,Wunderground v.1.15,2013-01-11 04:25:00,
2013-01-10 23:30:00,54.1,41.4,30.38,North,0,0.0,-999.0,62,0.00,,,0.00,Wunderground v.1.15,2013-01-11 04:30:00,
2013-01-10 23:35:00,54.1,41.4,30.38,North,0,0.0,-999.0,62,0.00,,,0.00,Wunderground v.1.15,2013-01-11 04:35:00,
2013-01-10 23:40:00,54.1,41.4,30.38,North,0,0.0,-999.0,62,0.00,,,0.00,Wunderground v.1.15,2013-01-11 04:40:00,
2013-01-10 23:45:00,54.2,43.9,30.37,North,0,0.0,-999.0,68,0.00,,,0.00,Wunderground v.1.15,2013-01-11 04:45:00,
2013-01-10 23:50:00,54.2,43.9,30.37,North,0,0.0,-999.0,68,0.00,,,0.00,Wunderground v.1.15,2013-01-11 04:50:00,
2013-01-10 23:55:00,54.2,43.9,30.37,North,0,0.0,-999.0,68,0.00,,,0.00,Wunderground v.1.15,2013-01-11 04:55:00,